Location: C�mpuri de-Sus
(45.9500°N, 22.5500°E)
Time: 18:31:46
(UTC+00:00)

Cosmos 839 Rocket - Pass Details

Date: 10 December 2023
Orbit: 960 x 2093 km, 65.9° (Epoch: 20 February)

Event Time Altitude Azimuth Distance (km) Brightness Sun altitude
Exits shadow 01:27:53 59° 21° (NNE) 2,333 5.8 -46.1°
Drops below altitude 10° 01:36:42 10° 35° (NE) 4,373 7.7 -44.7°
Sets 01:39:52 0° 36° (NE) 5,270 8.3 -44.1°
